Regional Weather Roundup
Issued by NWS Little Rock, AR

Home | Current Version | Previous Version | Graphics & Text | Print | Product List | Glossary On
Versions: 1 2 3 4 5 6 7 8 9 10 11 12 13 14 15 16 17 18 19 20 21 22 23 24 25 26 27 28 29 30 31 32 33 34 35 36 37 38 39 40 41 42 43 44 45 46 47 48 49 50
000
ASUS44 KLZK 011405
RWRLZK

WEATHER ROUNDUP FOR ARKANSAS
NATIONAL WEATHER SERVICE LITTLE ROCK AR
900 AM CDT SAT AUG 01 2015

NOTE: "FAIR" INDICATES FEW OR NO CLOUDS BELOW 12,000 FEET WITH NO
SIGNIFICANT WEATHER AND/OR OBSTRUCTIONS TO VISIBILITY.

ARZ001-003-010-029-011500-
NORTHWEST ARKANSAS

CITY           SKY/WX    TMP DP  RH WIND       PRES   REMARKS
FAYETTEVILLE   SUNNY     71  64  78 CALM      30.12S
FORT SMITH     SUNNY     77  66  68 VRB3      30.07S
HARRISON       SUNNY     78  67  68 CALM      30.13R
BENTONVILLE    SUNNY     77  64  65 CALM      30.13R
ROGERS         SUNNY     77  67  71 SE5       30.13R
SILOAM SPGS    SUNNY     73  63  68 SE5       30.10S
HIGHFILL       SUNNY     75  66  73 SE3       30.11S
SPRINGDALE     SUNNY     73  64  73 SE6       30.14R
$$

ARZ004-005-016-011500-
NORTH CENTRAL ARKANSAS

CITY           SKY/WX    TMP DP  RH WIND       PRES   REMARKS
BATESVILLE     SUNNY     75  68  78 W3        30.07S
FLIPPIN        SUNNY     73  66  78 CALM      30.08S
MTN HOME       SUNNY     73  71  93 CALM      30.09S
$$

ARZ040-041-011500-
WEST CENTRAL ARKANSAS

CITY           SKY/WX    TMP DP  RH WIND       PRES   REMARKS
MENA           SUNNY     79  66  65 CALM      30.10F
MOUNT IDA      SUNNY     75  67  76 CALM      30.06F
$$

ARZ009-017-025-026-028-011500-
NORTHEAST ARKANSAS

CITY           SKY/WX    TMP DP  RH WIND       PRES   REMARKS
JONESBORO      SUNNY     81  68  64 N3        30.05S
NEWPORT        SUNNY     81  69  66 N7        30.07S
WALNUT RIDGE   SUNNY     79  66  65 N3        30.06S
BLYTHEVILLE    SUNNY     82  74  76 CALM      30.05S HX  88
$$

ARZ022-023-033-042-044-011500-
CENTRAL ARKANSAS

CITY           SKY/WX    TMP DP  RH WIND       PRES   REMARKS
LITTLE ROCK    MOSUNNY   83  67  58 N5        30.05F HX  85
N LITTLE ROCK  MOSUNNY   83  68  61 N6        30.05F HX  86
JACKSONVILLE   SUNNY     81  68  65 NW2       30.05S
SEARCY         SUNNY     82  68  62 N7        30.06F HX  85
HOT SPRINGS    SUNNY     80  65  59 CALM      30.07S
RUSSELLVILLE   SUNNY     78  69  73 CALM      30.07S
CLINTON        FAIR      75  68  78 CALM      30.09S
$$

ARZ036-011500-
EAST ARKANSAS

CITY           SKY/WX    TMP DP  RH WIND       PRES   REMARKS
WEST MEMPHIS   SUNNY     83  71  67 N5        30.03F HX  87
$$

ARZ050-053-066-070-073-011500-
SOUTHWEST ARKANSAS

CITY           SKY/WX    TMP DP  RH WIND       PRES   REMARKS
ARKADELPHIA    FAIR      80  70  71 CALM      30.06S
CAMDEN         SUNNY     77  66  69 NE3       30.05S
TEXARKANA      SUNNY     78  66  66 E5        30.06R
EL DORADO      SUNNY     79  67  66 NE7       30.05S
DE QUEEN       SUNNY     78  69  73 CALM      30.05S
$$

ARZ056-057-069-011500-
SOUTHEAST ARKANSAS

CITY           SKY/WX    TMP DP  RH WIND       PRES   REMARKS
PINE BLUFF     SUNNY     82  68  62 NE5       30.05S HX  85
STUTTGART      SUNNY     79  70  73 MISG      30.04S
MONTICELLO     SUNNY     81  70  69 NE6       30.04S

$$




USA.gov is the U.S. government's official web portal to all federal, state and local government web resources and services.